QPF
0.00 0.00 0.00 0.01 0.01 0.01 0.01 0.01 0.01 0.01 0.02 0.02 0.01 0.01 0.01 0.02 0.05 0.38 0.61 0.16 0.04 0.10 0.03 0.00 0.00 0.00 0.00 0.00 0.00 0.00 0.00 0.00 0.01 0.02 0.03 0.02 0.01 0.00 0.00 0.00 0.03 0.02 0.00 0.00 0.00 0.00 0.01 0.00 0.00 0.00 0.00 0.00 0.00 0.00
0.00 0.02 0.02 0.02 0.01 0.01 0.00 0.00 0.00 0.00 0.02 0.03 0.03 0.02 0.02 0.02 0.03 0.18 0.75 0.37 0.04 0.12 0.08 0.02 0.00 0.00 0.00 0.00 0.00 0.00 0.00 0.00 0.00 0.03 0.01 0.01 0.00 0.00 0.00 0.00 0.00 0.01 0.03 0.02 0.01 0.00 0.00 0.00 0.00 0.00 0.00 0.00 0.00 0.00
0.02 0.03 0.01 0.01 0.01 0.01 0.00 0.01 0.01 0.01 0.01 0.04 0.06 0.04 0.03 0.03 0.03 0.09 0.50 0.27 0.15 0.34 0.22 0.05 0.01 0.00 0.00 0.00 0.00 0.03 0.00 0.00 0.00 0.00 0.05 0.04 0.01 0.00 0.00 0.00 0.00 0.00 0.02 0.08 0.05 0.01 0.02 0.03 0.02 0.00 0.00 0.00 0.00 0.00
0.03 0.02 0.01 0.01 0.01 0.01 0.00 0.01 0.04 0.04 0.01 0.02 0.09 0.08 0.07 0.05 0.03 0.04 0.16 0.15 0.26 0.47 0.23 0.04 0.00 0.00 0.00 0.00 0.00 0.03 0.01 0.01 0.00 0.01 0.05 0.08 0.03 0.00 0.00 0.00 0.00 0.00 0.00 0.00 0.01 0.00 0.01 0.01 0.01 0.01 0.00 0.00 0.00 0.00
0.03 0.01 0.01 0.01 0.02 0.00 0.01 0.03 0.07 0.06 0.02 0.02 0.12 0.12 0.09 0.05 0.04 0.04 0.04 0.17 0.24 0.10 0.03 0.01 0.00 0.00 0.00 0.00 0.00 0.00 0.00 0.01 0.03 0.07 0.13 0.19 0.02 0.01 0.01 0.01 0.00 0.00 0.00 0.00 0.00 0.00 0.00 0.00 0.00 0.00 0.00 0.00 0.00 0.00
0.04 0.00 0.00 0.01 0.02 0.02 0.06 0.10 0.08 0.02 0.00 0.04 0.09 0.07 0.04 0.04 0.04 0.11 0.21 0.26 0.13 0.08 0.01 0.01 0.00 0.00 0.00 0.00 0.00 0.00 0.00 0.01 0.02 0.06 0.09 0.16 0.12 0.04 0.02 0.00 0.00 0.00 0.00 0.00 0.00 0.00 0.00 0.00 0.00 0.00 0.00 0.00 0.00 0.00
0.04 0.00 0.00 0.00 0.01 0.02 0.04 0.04 0.02 0.02 0.03 0.08 0.05 0.05 0.08 0.06 0.08 0.12 0.15 0.20 0.16 0.08 0.01 0.00 0.01 0.00 0.00 0.00 0.02 0.01 0.01 0.03 0.03 0.08 0.21 0.08 0.04 0.09 0.04 0.00 0.00 0.00 0.00 0.00 0.00 0.00 0.00 0.00 0.00 0.00 0.00 0.00 0.00 0.00
0.05 0.01 0.00 0.00 0.00 0.01 0.02 0.02 0.03 0.05 0.08 0.11 0.11 0.14 0.18 0.15 0.13 0.06 0.00 0.00 0.03 0.02 0.00 0.00 0.01 0.00 0.00 0.01 0.02 0.00 0.01 0.02 0.02 0.04 0.11 0.21 0.10 0.07 0.03 0.00 0.00 0.00 0.00 0.00 0.00 0.00 0.00 0.00 0.00 0.00 0.00 0.00 0.00 0.00
0.04 0.03 0.01 0.00 0.00 0.00 0.01 0.02 0.06 0.11 0.16 0.19 0.20 0.24 0.20 0.14 0.16 0.04 0.03 0.06 0.03 0.01 0.00 0.00 0.00 0.00 0.00 0.01 0.02 0.01 0.01 0.00 0.02 0.06 0.09 0.12 0.19 0.08 0.01 0.01 0.00 0.00 0.00 0.00 0.00 0.00 0.00 0.00 0.00 0.00 0.00 0.00 0.00 0.00
0.07 0.05 0.03 0.02 0.03 0.05 0.04 0.04 0.05 0.06 0.08 0.09 0.10 0.12 0.21 0.10 0.01 0.01 0.03 0.04 0.02 0.00 0.01 0.00 0.00 0.00 0.04 0.03 0.01 0.03 0.01 0.05 0.13 0.11 0.11 0.09 0.11 0.10 0.05 0.06 0.01 0.00 0.00 0.00 0.00 0.00 0.00 0.00 0.00 0.00 0.00 0.00 0.00 0.00
0.11 0.11 0.13 0.15 0.20 0.23 0.23 0.19 0.14 0.09 0.05 0.03 0.03 0.08 0.11 0.03 0.01 0.01 0.01 0.01 0.01 0.00 0.00 0.00 0.00 0.00 0.01 0.03 0.05 0.06 0.03 0.06 0.19 0.15 0.14 0.18 0.07 0.06 0.02 0.01 0.00 0.00 0.00 0.00 0.00 0.00 0.00 0.00 0.00 0.00 0.00 0.00 0.00 0.00
0.08 0.08 0.09 0.09 0.09 0.07 0.05 0.02 0.01 0.00 0.00 0.00 0.01 0.01 0.00 0.00 0.00 0.00 0.00 0.00 0.00 0.00 0.01 0.01 0.00 0.00 0.00 0.02 0.14 0.16 0.05 0.03 0.02 0.08 0.10 0.11 0.07 0.00 0.00 0.00 0.00 0.00 0.00 0.00 0.00 0.00 0.00 0.00 0.00 0.00 0.00 0.00 0.00 0.00
0.05 0.03 0.01 0.01 0.00 0.00 0.00 0.00 0.00 0.00 0.00 0.00 0.00 0.00 0.00 0.00 0.00 0.00 0.00 0.00 0.00 0.01 0.00 0.00 0.00 0.01 0.04 0.08 0.20 0.18 0.07 0.11 0.02 0.02 0.02 0.02 0.01 0.00 0.00 0.00 0.00 0.00 0.00 0.00 0.00 0.00 0.00 0.00 0.00 0.00 0.01 0.02 0.02 0.03
0.00 0.00 0.00 0.00 0.00 0.00 0.00 0.00 0.00 0.00 0.00 0.00 0.00 0.01 0.03 0.04 0.10 0.07 0.02 0.01 0.01 0.01 0.00 0.00 0.00 0.01 0.13 0.23 0.21 0.21 0.15 0.15 0.09 0.03 0.02 0.02 0.01 0.00 0.00 0.00 0.00 0.01 0.01 0.01 0.02 0.02 0.02 0.01 0.02 0.03 0.05 0.05 0.03 0.03
0.00 0.00 0.00 0.00 0.00 0.00 0.00 0.00 0.00 0.00 0.00 0.00 0.00 0.01 0.02 0.06 0.05 0.03 0.02 0.01 0.02 0.01 0.00 0.00 0.00 0.02 0.12 0.26 0.11 0.24 0.23 0.17 0.10 0.05 0.05 0.04 0.02 0.01 0.02 0.02 0.02 0.04 0.05 0.07 0.09 0.09 0.10 0.11 0.10 0.10 0.08 0.05 0.01 0.01
0.00 0.00 0.00 0.00 0.00 0.00 0.00 0.00 0.00 0.00 0.00 0.00 0.01 0.02 0.02 0.02 0.01 0.01 0.01 0.02 0.04 0.01 0.00 0.00 0.01 0.00 0.01 0.03 0.02 0.06 0.05 0.04 0.04 0.05 0.05 0.04 0.05 0.05 0.04 0.05 0.06 0.09 0.10 0.11 0.12 0.11 0.13 0.12 0.08 0.08 0.06 0.03 0.02 0.01
0.00 0.00 0.00 0.00 0.00 0.00 0.00 0.00 0.00 0.00 0.00 0.00 0.01 0.01 0.01 0.01 0.02 0.02 0.02 0.03 0.07 0.07 0.01 0.02 0.03 0.01 0.01 0.00 0.01 0.01 0.04 0.05 0.04 0.05 0.05 0.06 0.08 0.08 0.08 0.07 0.08 0.09 0.10 0.11 0.10 0.08 0.08 0.06 0.03 0.02 0.02 0.02 0.00 0.00
0.00 0.00 0.00 0.00 0.00 0.00 0.00 0.00 0.00 0.00 0.00 0.01 0.01 0.02 0.00 0.01 0.01 0.01 0.02 0.04 0.05 0.02 0.00 0.00 0.01 0.01 0.01 0.01 0.03 0.05 0.03 0.04 0.04 0.05 0.08 0.13 0.12 0.12 0.10 0.09 0.09 0.08 0.08 0.07 0.05 0.04 0.02 0.01 0.00 0.00 0.00 0.00 0.00 0.00
0.00 0.00 0.00 0.00 0.00 0.00 0.00 0.00 0.00 0.00 0.01 0.00 0.01 0.01 0.00 0.01 0.02 0.02 0.02 0.02 0.01 0.00 0.00 0.00 0.00 0.01 0.01 0.02 0.03 0.06 0.03 0.02 0.03 0.05 0.09 0.13 0.12 0.11 0.10 0.09 0.08 0.08 0.06 0.05 0.03 0.02 0.02 0.01 0.01 0.00 0.00 0.00 0.00 0.00
0.00 0.00 0.00 0.00 0.00 0.00 0.00 0.00 0.00 0.00 0.01 0.01 0.02 0.01 0.01 0.02 0.02 0.01 0.01 0.00 0.00 0.00 0.00 0.01 0.02 0.02 0.02 0.03 0.06 0.06 0.03 0.03 0.02 0.03 0.08 0.12 0.12 0.09 0.10 0.09 0.08 0.07 0.05 0.03 0.02 0.01 0.00 0.00 0.00 0.00 0.00 0.00 0.00 0.01
0.00 0.00 0.00 0.00 0.00 0.00 0.01 0.03 0.02 0.02 0.02 0.03 0.03 0.02 0.02 0.01 0.00 0.00 0.00 0.00 0.00 0.01 0.02 0.03 0.02 0.03 0.04 0.06 0.08 0.06 0.06 0.04 0.06 0.06 0.08 0.10 0.11 0.08 0.09 0.08 0.06 0.04 0.03 0.02 0.01 0.00 0.00 0.00 0.00 0.00 0.00 0.00 0.00 0.00
0.00 0.00 0.00 0.00 0.00 0.00 0.02 0.03 0.03 0.04 0.03 0.04 0.04 0.03 0.03 0.02 0.02 0.01 0.00 0.00 0.02 0.03 0.03 0.04 0.03 0.03 0.04 0.06 0.07 0.07 0.08 0.06 0.07 0.08 0.09 0.08 0.08 0.08 0.07 0.07 0.04 0.03 0.01 0.00 0.00 0.00 0.00 0.00 0.00 0.00 0.00 0.00 0.00 0.00
0.00 0.00 0.00 0.00 0.00 0.00 0.00 0.01 0.01 0.04 0.04 0.03 0.03 0.03 0.03 0.03 0.03 0.01 0.02 0.03 0.05 0.08 0.05 0.04 0.05 0.05 0.06 0.07 0.05 0.06 0.06 0.05 0.07 0.08 0.08 0.07 0.07 0.06 0.04 0.03 0.01 0.00 0.00 0.00 0.00 0.00 0.00 0.00 0.00 0.00 0.00 0.00 0.00 0.00
0.00 0.00 0.00 0.00 0.00 0.00 0.00 0.00 0.00 0.00 0.00 0.00 0.00 0.00 0.01 0.01 0.00 0.00 0.02 0.04 0.07 0.05 0.07 0.07 0.05 0.05 0.05 0.04 0.05 0.07 0.08 0.06 0.06 0.06 0.07 0.05 0.04 0.03 0.01 0.00 0.00 0.00 0.00 0.00 0.00 0.00 0.00 0.00 0.00 0.00 0.00 0.00 0.00 0.00
0.00 0.00 0.00 0.00 0.00 0.00 0.00 0.00 0.00 0.00 0.00 0.00 0.00 0.00 0.00 0.00 0.00 0.00 0.01 0.02 0.02 0.03 0.03 0.03 0.03 0.03 0.04 0.05 0.06 0.06 0.06 0.06 0.06 0.05 0.05 0.01 0.01 0.00 0.00 0.00 0.00 0.00 0.00 0.00 0.00 0.00 0.00 0.00 0.00 0.00 0.00 0.00 0.00 0.00
0.00 0.00 0.00 0.00 0.00 0.00 0.00 0.00 0.00 0.00 0.00 0.00 0.00 0.00 0.00 0.00 0.00 0.01 0.02 0.02 0.01 0.02 0.02 0.02 0.02 0.02 0.03 0.04 0.04 0.04 0.04 0.03 0.02 0.02 0.02 0.01 0.00 0.00 0.00 0.00 0.00 0.00 0.00 0.00 0.00 0.00 0.00 0.00 0.00 0.00 0.00 0.00 0.00 0.00
0.00 0.00 0.00 0.00 0.00 0.00 0.00 0.00 0.00 0.00 0.00 0.00 0.00 0.00 0.00 0.00 0.00 0.01 0.01 0.01 0.01 0.02 0.02 0.02 0.01 0.01 0.02 0.02 0.01 0.01 0.00 0.00 0.00 0.00 0.00 0.00 0.00 0.00 0.00 0.00 0.00 0.00 0.00 0.00 0.00 0.00 0.00 0.00 0.00 0.00 0.00 0.00 0.00 0.00
0.00 0.00 0.00 0.00 0.00 0.00 0.00 0.00 0.00 0.00 0.00 0.00 0.00 0.00 0.00 0.00 0.01 0.02 0.01 0.01 0.01 0.01 0.01 0.02 0.02 0.02 0.01 0.01 0.00 0.00 0.00 0.00 0.00 0.00 0.00 0.00 0.00 0.00 0.00 0.00 0.00 0.00 0.00 0.00 0.00 0.00 0.00 0.00 0.00 0.00 0.00 0.00 0.00 0.00
0.00 0.00 0.00 0.00 0.00 0.00 0.00 0.00 0.00 0.00 0.00 0.00 0.01 0.00 0.00 0.02 0.02 0.01 0.01 0.01 0.01 0.01 0.01 0.01 0.01 0.00 0.00 0.00 0.00 0.00 0.00 0.00 0.00 0.00 0.00 0.00 0.00 0.00 0.00 0.00 0.00 0.00 0.00 0.00 0.00 0.00 0.00 0.00 0.00 0.00 0.00 0.00 0.00 0.00
0.00 0.00 0.00 0.00 0.00 0.00 0.01 0.01 0.01 0.00 0.00 0.00 0.00 0.00 0.00 0.01 0.03 0.02 0.02 0.02 0.01 0.01 0.01 0.01 0.01 0.00 0.00 0.00 0.00 0.00 0.00 0.00 0.00 0.00 0.00 0.00 0.00 0.00 0.00 0.00 0.00 0.00 0.00 0.00 0.00 0.00 0.00 0.00 0.00 0.00 0.00 0.00 0.00 0.00
0.00 0.00 0.00 0.00 0.00 0.00 0.00 0.00 0.00 0.00 0.00 0.00 0.00 0.00 0.00 0.00 0.00 0.00 0.00 0.00 0.00 0.00 0.00 0.01 0.01 0.00 0.00 0.00 0.00 0.00 0.00 0.00 0.00 0.00 0.00 0.00 0.00 0.00 0.00 0.00 0.00 0.00 0.00 0.00 0.00 0.00 0.00 0.00 0.00 0.00 0.00 0.00 0.00 0.00
0.00 0.00 0.00 0.00 0.00 0.00 0.01 0.02 0.01 0.00 0.01 0.00 0.00 0.00 0.00 0.01 0.00 0.00 0.00 0.01 0.01 0.01 0.01 0.00 0.00 0.00 0.00 0.00 0.00 0.00 0.00 0.00 0.00 0.00 0.00 0.00 0.00 0.00 0.00 0.00 0.00 0.00 0.00 0.00 0.00 0.00 0.00 0.00 0.00 0.00 0.00 0.00 0.00 0.00
0.00 0.00 0.00 0.00 0.00 0.00 0.00 0.01 0.00 0.00 0.00 0.00 0.00 0.01 0.01 0.01 0.00 0.00 0.00 0.00 0.02 0.01 0.00 0.00 0.00 0.00 0.00 0.00 0.00 0.00 0.00 0.00 0.00 0.00 0.00 0.00 0.00 0.00 0.00 0.00 0.00 0.00 0.00 0.00 0.00 0.00 0.00 0.00 0.00 0.00 0.00 0.00 0.00 0.00
MSLP
994.51 993.91 993.29 992.63 992.04 991.51 991.13 990.96 991.05 991.38 992.00 992.84 993.79 994.95 996.10 997.16 998.25 999.61 999.62 1001.21 1002.12 1002.59 1002.37 1002.02 1002.00 1002.28 1002.64 1003.06 1003.56 1003.73 1004.39 1004.07 1004.65 1005.72 1006.19 1006.32 1006.47 1006.04 1005.45 1004.35 1003.49 1003.65 1004.55 1005.12 1005.42 1004.32 1002.57 999.74 998.80 998.81 998.84 998.18 997.84 997.97
993.23 992.51 991.65 990.76 989.91 989.28 988.86 988.73 988.88 989.24 989.85 990.70 991.72 993.04 994.58 995.91 997.21 998.84 999.66 1000.27 1001.55 1002.30 1002.01 1001.79 1001.56 1001.35 1001.72 1002.21 1002.82 1003.13 1003.11 1003.31 1003.87 1004.38 1005.12 1005.62 1005.99 1005.05 1004.52 1004.01 1003.07 1003.46 1003.92 1003.86 1003.86 1002.99 1001.54 1000.14 999.24 998.50 998.23 998.67 998.55 998.20
991.93 990.95 989.89 988.96 988.16 987.40 986.76 986.36 986.44 986.93 987.82 988.94 990.18 991.58 993.14 994.70 996.30 998.03 999.53 1000.29 1001.15 1001.37 1001.94 1001.80 1001.62 1001.32 1001.36 1001.61 1002.28 1003.28 1002.89 1002.56 1002.76 1003.05 1004.43 1004.96 1005.00 1004.81 1004.38 1003.56 1002.90 1002.66 1002.88 1003.37 1003.33 1002.08 1001.60 1000.92 999.56 999.21 999.36 998.50 998.39 998.89
990.68 989.50 988.50 987.65 986.74 985.65 984.58 983.64 983.78 984.92 986.07 987.34 988.52 989.92 991.79 993.79 995.67 997.78 999.14 1000.07 1000.40 1001.29 1001.62 1001.41 1001.11 1000.95 1000.91 1001.22 1002.09 1002.34 1002.95 1002.68 1002.40 1002.67 1003.86 1004.57 1004.90 1003.12 1003.50 1002.74 1001.92 1001.35 1001.88 1001.92 1001.69 1001.05 1001.52 1000.46 999.59 999.56 999.42 999.66 999.00 999.28
989.57 988.57 987.77 986.95 985.85 984.71 983.05 981.29 981.46 983.65 985.20 986.80 987.65 989.03 991.34 993.30 995.53 997.72 999.13 999.53 999.80 1000.12 1000.21 1000.62 1000.73 1000.60 1000.51 1001.16 1001.74 1002.14 1002.65 1002.83 1003.08 1003.53 1004.00 1004.41 1004.35 1004.18 1002.25 1001.84 1001.14 1000.11 1000.26 1000.98 1000.48 999.69 999.86 999.82 999.43 999.16 999.72 1000.11 999.95 999.61
988.89 988.19 987.59 986.76 985.87 984.98 984.13 983.47 983.71 984.78 985.95 986.96 988.27 990.19 992.01 993.76 995.95 997.57 998.80 999.33 999.11 999.18 999.60 1000.62 1000.25 1000.25 1000.69 1001.17 1001.56 1001.76 1002.33 1002.94 1003.60 1004.10 1004.53 1004.35 1004.27 1004.72 1003.09 1001.43 999.98 999.21 998.73 998.86 999.32 998.99 998.99 999.33 999.63 1000.00 1000.31 1000.46 1000.55 1000.14
988.74 988.28 987.81 987.26 986.49 985.98 985.61 985.58 985.94 986.52 987.36 988.47 989.77 991.23 992.88 994.58 995.97 996.94 997.07 997.42 998.99 999.52 999.42 1000.59 1000.72 1000.64 1000.70 1001.09 1001.61 1002.21 1002.59 1003.04 1003.67 1004.26 1004.36 1004.23 1003.88 1004.78 1004.32 1001.35 999.33 998.55 998.09 998.07 998.18 998.86 999.73 999.92 1000.22 1000.54 1000.81 1001.04 1001.12 1001.20
988.90 988.68 988.44 987.97 987.49 987.15 987.09 987.27 987.51 987.98 988.82 989.86 991.10 992.46 994.08 995.57 996.35 996.56 996.55 997.46 999.14 999.18 999.75 1001.07 1001.59 1001.66 1001.89 1001.95 1002.75 1002.91 1003.39 1003.57 1003.74 1003.92 1004.01 1004.08 1003.83 1003.89 1002.07 1000.21 999.51 998.57 998.16 998.52 998.82 998.86 999.34 1000.26 1000.79 1001.25 1001.68 1002.12 1002.60 1003.24
989.51 989.33 989.26 988.95 988.72 988.58 988.52 988.68 989.13 989.70 990.46 991.50 992.74 994.01 995.29 996.23 996.36 996.81 997.54 998.43 998.94 999.39 1000.24 1001.41 1001.86 1002.63 1002.71 1002.82 1002.82 1003.51 1003.50 1004.22 1003.59 1003.68 1003.40 1003.60 1003.67 1003.35 1001.47 1000.17 999.23 998.69 998.38 998.79 999.53 1000.03 1000.43 1001.19 1001.91 1002.48 1003.12 1003.63 1004.42 1005.61
990.71 990.74 990.67 990.61 990.45 990.41 990.50 990.77 991.19 991.73 992.38 993.35 994.07 995.33 996.22 996.11 996.36 996.57 998.25 999.05 999.54 999.63 1000.22 1001.34 1001.75 1002.90 1003.30 1003.49 1003.57 1003.77 1003.75 1003.92 1003.55 1002.96 1002.50 1003.27 1003.27 1003.32 1002.97 1001.48 1000.25 999.40 999.00 998.89 1000.34 1001.27 1001.62 1002.52 1003.44 1004.36 1005.42 1006.06 1006.94 1008.00
992.80 992.75 992.71 992.65 992.63 992.63 992.78 993.09 993.18 993.42 993.52 993.98 994.98 996.16 997.12 996.82 996.71 997.68 999.12 999.71 1000.10 1000.39 1000.68 1001.20 1001.66 1002.86 1003.74 1003.77 1003.89 1003.67 1003.35 1002.92 1002.55 1002.03 1001.94 1002.90 1003.29 1004.13 1003.99 1003.29 1002.17 1001.82 1001.41 1001.71 1001.87 1001.92 1002.55 1003.65 1005.09 1006.45 1007.73 1008.55 1009.29 1010.03
994.24 994.20 994.19 994.02 993.69 993.36 993.35 993.12 992.85 993.07 993.64 994.44 995.68 996.93 997.41 997.75 998.29 999.05 999.97 1000.15 1000.15 1000.40 1000.73 1001.37 1002.03 1002.47 1003.36 1003.49 1003.80 1003.27 1002.50 1002.10 1001.14 1001.23 1002.54 1003.48 1004.14 1004.92 1005.12 1004.91 1004.55 1004.20 1004.01 1004.11 1004.37 1004.87 1005.60 1006.26 1007.22 1008.27 1009.52 1010.52 1011.31 1011.97
995.61 995.18 995.07 994.78 994.77 994.88 994.74 994.66 994.58 994.94 995.08 995.43 995.87 997.41 998.25 999.58 999.85 1000.28 1000.84 1000.98 1000.92 1000.75 1001.13 1001.55 1002.28 1002.64 1003.14 1003.24 1003.20 1002.43 1002.01 1001.59 1001.11 1001.86 1003.21 1004.76 1005.82 1006.23 1006.41 1006.45 1006.48 1006.44 1006.33 1006.49 1007.10 1007.46 1007.90 1008.64 1009.44 1009.88 1010.79 1011.95 1012.81 1013.49
996.75 996.58 996.42 996.24 996.01 995.93 995.82 995.69 995.37 995.23 995.35 996.76 997.96 999.54 1000.25 1001.22 1001.79 1002.12 1001.85 1001.51 1001.57 1001.17 1001.13 1001.25 1001.97 1002.31 1002.56 1003.01 1002.61 1002.07 1001.33 1001.15 1002.10 1003.41 1005.05 1006.26 1007.09 1007.42 1007.55 1007.72 1007.70 1008.09 1008.26 1008.50 1009.03 1009.40 1009.83 1010.49 1011.41 1011.87 1012.43 1013.25 1013.98 1014.88
997.23 997.15 996.91 997.06 996.83 996.57 996.31 996.03 995.75 995.42 997.31 999.16 1000.12 1001.80 1002.83 1003.52 1003.67 1003.51 1003.04 1002.78 1002.93 1002.28 1001.75 1001.65 1001.57 1001.45 1001.82 1001.87 1001.73 1001.88 1002.35 1003.38 1004.48 1005.56 1006.56 1007.50 1008.08 1008.41 1008.67 1009.00 1009.18 1009.46 1009.79 1010.20 1010.74 1011.09 1011.69 1012.32 1013.05 1013.95 1014.44 1015.11 1015.44 1016.29
997.62 997.50 997.86 997.62 997.58 997.16 996.87 996.62 996.36 996.93 999.38 1001.53 1003.43 1004.07 1004.51 1004.71 1005.06 1004.71 1004.56 1004.23 1003.84 1003.25 1002.31 1001.51 1001.42 1001.77 1002.23 1002.59 1002.93 1003.92 1004.38 1006.26 1007.33 1007.76 1008.27 1008.77 1009.20 1009.61 1010.02 1010.40 1010.70 1011.07 1011.43 1011.80 1012.33 1012.94 1013.44 1013.97 1014.73 1015.30 1015.91 1016.53 1017.19 1017.67
998.46 998.92 998.65 997.95 997.79 997.72 997.55 997.39 998.36 1000.29 1002.11 1003.72 1005.75 1006.29 1006.25 1006.53 1006.91 1006.68 1006.16 1005.51 1004.65 1003.98 1003.31 1002.90 1003.24 1003.94 1003.65 1004.63 1006.18 1007.17 1008.23 1008.73 1009.14 1009.57 1009.83 1010.17 1010.49 1010.93 1011.43 1011.85 1012.25 1012.68 1012.97 1013.36 1013.92 1014.68 1015.03 1015.69 1016.20 1016.63 1017.35 1018.41 1018.70 1019.34
999.14 999.37 998.90 998.43 998.37 998.11 998.71 999.11 1000.87 1002.92 1005.01 1006.36 1006.83 1007.58 1007.65 1007.98 1007.98 1007.84 1007.43 1006.54 1005.33 1004.58 1004.62 1005.40 1005.64 1006.73 1007.92 1008.36 1009.28 1009.74 1010.11 1010.35 1010.64 1010.86 1011.18 1011.46 1011.66 1011.99 1012.71 1013.19 1013.83 1014.20 1014.44 1014.86 1015.36 1016.02 1016.60 1017.04 1017.50 1018.27 1018.83 1019.51 1019.98 1020.69
999.91 999.59 999.16 998.64 998.54 999.12 1000.51 1001.86 1002.49 1004.86 1006.68 1007.28 1008.01 1008.31 1008.46 1008.90 1009.22 1009.14 1008.38 1007.43 1006.57 1006.12 1006.48 1008.25 1009.99 1011.22 1011.93 1012.04 1012.01 1011.60 1011.59 1011.92 1012.29 1012.70 1012.90 1013.12 1013.37 1013.87 1014.37 1014.95 1015.31 1015.60 1015.91 1016.42 1016.87 1017.35 1017.88 1018.35 1018.87 1019.56 1020.08 1020.68 1021.32 1022.17
999.64 999.45 999.24 999.09 998.86 1000.02 1002.09 1003.50 1003.63 1005.30 1006.89 1007.99 1008.65 1009.23 1009.63 1010.25 1010.28 1009.99 1009.39 1008.62 1007.94 1008.28 1010.43 1012.56 1014.19 1014.84 1014.67 1014.36 1013.64 1012.84 1013.04 1013.44 1013.55 1013.92 1014.58 1015.01 1015.33 1015.55 1016.12 1016.53 1017.00 1017.36 1017.59 1018.11 1018.59 1019.09 1019.66 1020.28 1020.95 1021.51 1022.00 1022.45 1022.80 1023.47
1000.05 1000.12 999.75 999.38 1000.05 1001.41 1003.32 1004.36 1005.28 1006.21 1007.08 1007.83 1008.63 1009.06 1009.94 1010.37 1010.56 1010.56 1010.38 1010.54 1010.71 1013.44 1015.20 1016.17 1016.43 1016.41 1016.18 1015.61 1014.66 1014.36 1014.64 1014.76 1015.17 1015.54 1016.05 1016.48 1017.07 1017.27 1017.82 1018.30 1018.49 1018.88 1019.35 1020.00 1020.49 1021.23 1021.66 1022.32 1022.98 1023.36 1023.61 1024.03 1024.56 1024.99
1000.90 1000.56 1000.47 1000.43 1001.46 1002.78 1004.06 1005.00 1005.54 1006.33 1007.01 1008.03 1008.62 1009.40 1010.39 1011.17 1011.95 1012.56 1013.37 1013.23 1015.92 1017.42 1017.57 1017.78 1017.82 1017.66 1017.39 1017.17 1016.91 1016.58 1016.56 1016.40 1016.88 1017.28 1017.75 1018.14 1018.64 1019.14 1019.57 1020.00 1020.29 1020.86 1021.41 1021.97 1022.44 1022.85 1023.30 1023.74 1024.29 1024.72 1025.14 1025.56 1025.78 1026.29
1001.13 1001.14 1001.67 1002.14 1003.10 1004.15 1005.45 1005.10 1005.62 1006.32 1007.10 1008.34 1009.30 1010.23 1011.27 1012.28 1013.55 1014.17 1015.93 1017.55 1018.37 1018.77 1018.97 1019.10 1019.12 1018.99 1018.87 1018.83 1018.53 1018.38 1018.39 1018.36 1018.81 1019.34 1019.73 1020.04 1020.44 1020.88 1021.22 1021.67 1022.06 1022.36 1022.89 1023.64 1023.97 1024.28 1024.68 1025.08 1025.39 1025.72 1026.19 1026.68 1027.16 1027.66
1002.22 1003.46 1004.35 1004.91 1005.28 1006.10 1006.12 1006.49 1006.67 1007.40 1008.15 1008.97 1009.87 1011.10 1012.00 1012.88 1014.50 1016.35 1018.55 1019.60 1020.14 1020.03 1019.81 1019.93 1020.04 1020.13 1020.23 1020.31 1020.24 1020.29 1020.36 1020.39 1020.58 1020.98 1021.42 1021.61 1021.93 1022.53 1022.84 1023.19 1023.55 1023.86 1024.19 1024.62 1025.10 1025.59 1026.04 1026.40 1026.66 1027.01 1027.39 1027.82 1028.22 1028.65
1004.59 1007.45 1007.47 1007.71 1007.70 1007.70 1008.20 1008.84 1009.31 1009.55 1010.73 1011.01 1011.56 1012.39 1012.96 1013.22 1015.03 1017.36 1019.27 1020.61 1020.94 1021.09 1021.29 1021.38 1021.35 1021.48 1021.62 1021.80 1021.87 1021.98 1022.15 1021.87 1022.11 1022.52 1023.20 1023.33 1023.49 1023.84 1024.34 1024.76 1025.05 1025.23 1025.42 1025.75 1026.27 1026.68 1027.14 1027.52 1027.90 1028.32 1028.65 1028.88 1029.24 1029.63
1008.12 1009.99 1010.19 1010.22 1010.42 1010.34 1010.79 1011.36 1011.78 1012.24 1012.49 1013.04 1013.66 1014.02 1014.28 1015.40 1017.49 1019.41 1020.78 1021.89 1022.07 1022.05 1022.15 1022.32 1022.55 1022.82 1023.11 1023.37 1023.54 1023.64 1023.75 1023.72 1023.70 1023.88 1024.63 1024.70 1024.46 1024.77 1025.35 1025.84 1026.27 1026.69 1026.68 1026.71 1027.11 1027.54 1027.96 1028.38 1028.89 1029.25 1029.66 1029.99 1030.22 1030.51
1010.73 1011.89 1012.27 1012.42 1012.36 1012.18 1013.18 1013.82 1014.21 1014.83 1015.36 1015.85 1015.99 1016.20 1016.37 1018.28 1020.02 1021.48 1022.36 1022.78 1022.99 1023.18 1023.17 1023.26 1023.46 1023.75 1024.11 1024.47 1024.72 1024.85 1024.91 1024.91 1025.05 1025.60 1026.02 1026.08 1026.27 1026.39 1026.62 1027.02 1027.42 1027.83 1027.83 1027.87 1027.96 1028.29 1028.71 1029.08 1029.53 1030.07 1030.50 1030.88 1031.14 1031.24
1012.74 1013.79 1014.46 1014.99 1015.08 1015.21 1015.83 1016.61 1017.39 1018.07 1018.26 1018.35 1018.16 1019.24 1020.21 1020.91 1022.20 1022.73 1023.14 1023.63 1023.88 1024.10 1024.20 1024.29 1024.42 1024.59 1024.79 1025.15 1025.41 1025.67 1025.88 1026.00 1026.16 1026.45 1026.83 1027.20 1027.60 1027.84 1028.03 1028.23 1028.37 1028.26 1028.75 1028.89 1028.96 1028.99 1029.18 1029.53 1030.27 1030.88 1031.22 1031.47 1031.72 1031.14
1014.19 1015.25 1016.04 1017.10 1017.23 1018.14 1018.93 1019.36 1019.91 1020.10 1020.26 1019.86 1020.19 1021.41 1022.39 1022.89 1023.21 1023.57 1023.91 1024.07 1024.33 1024.57 1024.87 1025.14 1025.45 1025.53 1025.76 1026.06 1026.30 1026.46 1026.70 1026.62 1026.65 1027.02 1027.61 1028.40 1028.84 1029.08 1028.97 1029.06 1029.16 1029.18 1029.36 1029.57 1029.22 1029.83 1029.76 1029.70 1029.98 1030.66 1031.04 1031.29 1031.29 1031.34
1015.33 1015.74 1017.18 1018.60 1019.70 1020.75 1021.10 1020.82 1021.21 1021.30 1021.15 1021.27 1022.05 1022.97 1023.71 1024.38 1024.49 1024.11 1024.10 1024.48 1024.73 1025.03 1025.20 1025.33 1025.69 1026.06 1026.54 1026.93 1027.45 1027.76 1027.86 1027.72 1027.57 1027.59 1028.42 1029.17 1029.55 1029.60 1029.66 1029.81 1029.91 1030.04 1030.26 1030.24 1030.14 1030.08 1029.91 1030.11 1030.06 1030.58 1031.38 1031.53 1031.86 1032.47
1015.53 1016.57 1018.23 1019.89 1021.27 1021.95 1021.66 1021.56 1021.57 1021.86 1022.21 1022.67 1023.38 1023.98 1024.54 1025.12 1025.43 1025.51 1025.43 1025.48 1025.54 1025.68 1025.90 1026.35 1026.83 1027.08 1027.37 1027.65 1028.08 1028.46 1029.02 1029.03 1028.89 1028.95 1029.15 1029.53 1029.89 1030.18 1030.40 1030.57 1030.51 1030.30 1030.80 1030.80 1030.70 1030.69 1030.72 1031.01 1031.26 1031.45 1031.89 1032.14 1032.48 1032.85
1016.63 1017.73 1019.04 1020.76 1021.87 1022.01 1021.97 1021.87 1021.89 1022.49 1023.08 1023.63 1024.30 1024.36 1024.91 1025.10 1025.87 1026.28 1026.38 1026.17 1025.93 1026.28 1026.65 1027.15 1027.71 1028.23 1028.32 1028.41 1028.51 1028.79 1029.27 1029.70 1030.07 1030.38 1030.24 1030.46 1030.75 1030.65 1030.54 1030.43 1030.53 1030.77 1031.27 1031.18 1031.07 1031.11 1031.27 1031.98 1032.09 1032.21 1032.42 1032.65 1032.90 1033.10
1017.82 1018.50 1019.42 1020.74 1021.57 1021.93 1021.76 1021.74 1022.10 1022.77 1023.21 1024.05 1024.64 1024.74 1025.21 1025.52 1026.50 1027.03 1026.86 1026.78 1026.46 1026.96 1027.62 1028.19 1028.48 1028.70 1028.89 1028.88 1029.15 1029.58 1030.18 1030.50 1030.39 1030.21 1030.53 1030.73 1031.01 1030.99 1030.83 1030.91 1031.00 1031.14 1031.64 1031.53 1031.48 1031.50 1031.78 1032.31 1032.53 1032.69 1032.86 1033.03 1033.22 1033.38
Thickness
5375 5375 5377 5381 5384 5387 5390 5393 5395 5396 5397 5396 5396 5396 5395 5396 5398 5398 5410 5408 5414 5416 5436 5451 5459 5463 5470 5476 5472 5483 5481 5486 5488 5471 5482 5483 5482 5516 5522 5541 5548 5547 5543 5544 5543 5549 5557 5619 5628 5613 5619 5637 5655 5656
5372 5376 5379 5382 5386 5388 5390 5391 5392 5394 5395 5396 5397 5396 5394 5394 5393 5391 5395 5402 5408 5409 5426 5438 5448 5464 5471 5476 5477 5479 5489 5494 5488 5482 5485 5492 5489 5497 5522 5520 5555 5546 5549 5553 5561 5563 5587 5608 5617 5626 5633 5632 5637 5644
5375 5379 5383 5383 5383 5385 5387 5389 5389 5389 5389 5389 5389 5389 5389 5390 5389 5386 5385 5395 5399 5407 5411 5424 5436 5460 5467 5472 5473 5466 5474 5495 5496 5498 5482 5492 5496 5516 5494 5520 5544 5554 5551 5545 5549 5570 5576 5587 5604 5610 5619 5631 5633 5630
5379 5383 5384 5382 5383 5384 5381 5380 5380 5381 5387 5388 5389 5387 5383 5383 5381 5377 5379 5387 5396 5396 5402 5421 5441 5453 5465 5468 5467 5471 5475 5482 5493 5496 5483 5489 5481 5527 5514 5534 5545 5558 5554 5554 5559 5573 5572 5584 5600 5603 5608 5608 5620 5619
5383 5385 5384 5383 5383 5379 5377 5376 5377 5375 5381 5384 5387 5387 5382 5380 5374 5372 5375 5387 5398 5410 5416 5428 5441 5453 5461 5460 5464 5470 5471 5475 5477 5478 5463 5478 5493 5507 5524 5535 5539 5567 5560 5550 5554 5579 5578 5586 5593 5601 5598 5596 5602 5611
5386 5385 5384 5384 5382 5378 5377 5376 5376 5376 5378 5382 5384 5381 5377 5374 5368 5366 5370 5382 5401 5413 5425 5416 5443 5450 5453 5458 5460 5467 5467 5466 5466 5464 5466 5480 5487 5487 5499 5522 5556 5567 5573 5571 5569 5582 5583 5585 5587 5588 5588 5587 5590 5597
5387 5385 5384 5384 5383 5380 5378 5377 5375 5375 5377 5379 5379 5377 5373 5369 5369 5373 5387 5405 5401 5409 5425 5417 5422 5442 5451 5455 5451 5451 5458 5460 5459 5460 5464 5474 5486 5478 5486 5501 5554 5567 5576 5576 5573 5570 5570 5577 5575 5578 5578 5579 5581 5583
5389 5386 5382 5382 5384 5383 5381 5378 5379 5380 5379 5379 5378 5375 5371 5368 5376 5386 5400 5405 5403 5416 5424 5407 5408 5426 5430 5434 5432 5441 5443 5447 5452 5456 5456 5464 5477 5479 5489 5533 5545 5558 5567 5565 5565 5569 5570 5566 5566 5566 5567 5563 5561 5557
5391 5388 5385 5384 5384 5383 5383 5383 5381 5380 5379 5377 5374 5372 5371 5373 5384 5390 5398 5402 5409 5417 5405 5401 5409 5409 5420 5425 5433 5433 5437 5432 5444 5435 5457 5468 5470 5474 5516 5532 5543 5552 5563 5562 5557 5556 5558 5557 5554 5551 5548 5546 5540 5526
5389 5387 5385 5383 5383 5382 5382 5381 5380 5379 5378 5375 5376 5371 5368 5385 5395 5404 5400 5401 5406 5413 5416 5403 5415 5411 5415 5414 5416 5424 5425 5431 5437 5444 5463 5458 5470 5479 5486 5507 5526 5544 5553 5557 5550 5545 5545 5541 5533 5525 5510 5507 5499 5491
5380 5380 5380 5379 5379 5378 5377 5377 5379 5380 5384 5386 5382 5380 5380 5391 5400 5402 5392 5397 5406 5402 5411 5414 5418 5414 5407 5413 5408 5419 5428 5432 5435 5457 5470 5465 5476 5467 5470 5481 5506 5510 5517 5517 5520 5531 5535 5519 5504 5491 5480 5475 5470 5465
5376 5376 5376 5379 5382 5386 5387 5391 5397 5399 5399 5398 5391 5388 5390 5395 5395 5397 5392 5398 5407 5410 5415 5416 5414 5408 5407 5411 5404 5423 5438 5437 5460 5467 5462 5469 5449 5448 5454 5460 5475 5482 5485 5486 5488 5486 5483 5479 5474 5467 5457 5451 5447 5444
5372 5377 5378 5382 5383 5384 5388 5391 5394 5395 5398 5401 5403 5392 5396 5383 5396 5392 5389 5398 5404 5405 5411 5410 5405 5405 5407 5413 5418 5431 5442 5458 5459 5468 5465 5442 5432 5434 5440 5445 5448 5455 5459 5461 5460 5460 5458 5454 5450 5448 5441 5433 5427 5422
5369 5372 5375 5378 5382 5385 5387 5391 5397 5403 5407 5397 5394 5389 5391 5384 5386 5382 5398 5407 5399 5406 5405 5409 5413 5412 5411 5414 5425 5450 5454 5461 5469 5463 5439 5421 5415 5418 5426 5430 5435 5436 5440 5441 5439 5439 5437 5433 5427 5425 5421 5415 5409 5403
5374 5376 5379 5381 5384 5388 5393 5397 5403 5409 5395 5383 5382 5376 5368 5367 5363 5370 5375 5387 5384 5392 5406 5415 5418 5429 5428 5434 5438 5445 5456 5443 5430 5422 5415 5405 5404 5408 5413 5416 5420 5422 5423 5422 5419 5418 5414 5410 5405 5399 5395 5390 5387 5381
5376 5380 5379 5382 5385 5391 5395 5401 5406 5405 5385 5369 5356 5361 5359 5361 5356 5362 5366 5376 5381 5387 5401 5419 5432 5435 5435 5431 5429 5422 5432 5407 5397 5397 5394 5392 5394 5396 5397 5399 5400 5402 5402 5400 5398 5396 5393 5390 5384 5379 5375 5370 5366 5362
5376 5372 5376 5384 5389 5392 5396 5400 5393 5378 5366 5364 5341 5340 5345 5346 5347 5353 5360 5370 5378 5390 5416 5415 5417 5413 5424 5415 5402 5393 5384 5384 5381 5380 5381 5383 5385 5385 5383 5383 5383 5382 5383 5382 5380 5375 5373 5368 5365 5363 5357 5348 5346 5340
5380 5379 5382 5388 5391 5396 5391 5390 5372 5359 5342 5334 5338 5336 5337 5335 5340 5344 5351 5363 5380 5396 5400 5394 5396 5385 5371 5387 5372 5374 5369 5369 5369 5371 5373 5374 5375 5374 5371 5369 5365 5365 5365 5364 5362 5358 5354 5353 5350 5343 5338 5331 5326 5318
5379 5383 5387 5392 5395 5390 5377 5368 5366 5342 5331 5329 5327 5330 5335 5333 5332 5334 5345 5359 5373 5379 5382 5367 5347 5341 5339 5342 5345 5354 5359 5358 5356 5355 5356 5355 5355 5353 5350 5348 5347 5347 5347 5345 5343 5340 5336 5333 5329 5323 5317 5312 5304 5296
5388 5389 5391 5393 5397 5386 5371 5361 5362 5350 5339 5330 5329 5324 5322 5320 5323 5328 5341 5353 5366 5364 5347 5331 5316 5313 5319 5326 5334 5349 5348 5345 5347 5345 5340 5337 5336 5336 5334 5332 5330 5328 5327 5324 5320 5316 5312 5307 5301 5296 5291 5285 5282 5275
5393 5393 5396 5400 5394 5383 5368 5361 5354 5348 5343 5341 5337 5338 5331 5327 5325 5328 5335 5342 5341 5322 5309 5303 5301 5305 5309 5315 5327 5332 5331 5332 5330 5329 5325 5321 5317 5317 5314 5312 5312 5309 5306 5301 5297 5291 5287 5280 5275 5271 5268 5264 5257 5251
5394 5397 5397 5399 5389 5380 5371 5362 5361 5355 5353 5345 5343 5340 5333 5328 5324 5319 5320 5321 5299 5289 5291 5291 5293 5296 5300 5302 5305 5309 5309 5310 5307 5306 5304 5302 5298 5295 5292 5290 5288 5284 5280 5276 5273 5269 5266 5263 5257 5251 5245 5239 5235 5228
5398 5398 5392 5391 5383 5377 5364 5371 5371 5369 5365 5354 5346 5339 5333 5324 5315 5316 5295 5288 5282 5281 5280 5279 5280 5283 5287 5288 5290 5291 5291 5292 5289 5285 5283 5281 5279 5276 5274 5271 5268 5265 5261 5255 5252 5249 5245 5240 5235 5232 5226 5219 5212 5203
5393 5379 5373 5372 5375 5368 5363 5356 5368 5364 5355 5350 5344 5333 5330 5327 5315 5296 5275 5270 5269 5270 5274 5273 5272 5271 5270 5270 5273 5273 5272 5272 5271 5268 5266 5265 5262 5258 5255 5252 5249 5246 5243 5238 5233 5228 5222 5217 5213 5209 5202 5195 5188 5182
5368 5344 5353 5345 5354 5366 5361 5351 5345 5345 5325 5333 5329 5320 5321 5326 5303 5286 5272 5263 5260 5259 5256 5256 5258 5257 5256 5255 5254 5252 5251 5255 5254 5250 5244 5243 5241 5238 5233 5229 5226 5224 5221 5217 5211 5207 5201 5196 5190 5185 5180 5174 5172 5163
5341 5332 5332 5338 5338 5338 5336 5333 5328 5325 5326 5318 5317 5319 5309 5291 5272 5264 5261 5245 5244 5246 5244 5241 5239 5236 5233 5232 5230 5230 5230 5230 5230 5228 5221 5221 5226 5222 5216 5211 5206 5201 5200 5199 5194 5188 5183 5178 5174 5168 5160 5157 5150 5143
5322 5316 5321 5324 5324 5329 5311 5306 5307 5289 5282 5289 5293 5278 5281 5254 5245 5245 5236 5232 5230 5228 5227 5226 5224 5221 5217 5213 5211 5210 5210 5209 5208 5203 5200 5199 5197 5195 5194 5190 5186 5182 5181 5179 5176 5172 5167 5161 5156 5150 5142 5135 5129 5125
5311 5305 5293 5292 5287 5294 5278 5273 5262 5257 5259 5264 5266 5245 5232 5232 5226 5225 5220 5215 5211 5209 5207 5206 5204 5203 5201 5197 5194 5192 5190 5189 5187 5184 5181 5179 5175 5173 5171 5169 5168 5166 5163 5160 5157 5154 5150 5144 5137 5130 5124 5118 5115 5112
5295 5290 5278 5258 5265 5258 5254 5247 5243 5246 5243 5247 5241 5225 5214 5217 5209 5204 5200 5196 5193 5190 5186 5183 5180 5179 5178 5175 5173 5172 5170 5172 5173 5170 5165 5158 5152 5153 5154 5152 5150 5149 5147 5144 5141 5138 5133 5127 5122 5117 5113 5108 5105 5102
5283 5284 5262 5244 5234 5231 5229 5236 5225 5220 5225 5220 5215 5208 5199 5187 5186 5186 5185 5179 5175 5172 5170 5169 5166 5162 5159 5155 5151 5149 5149 5151 5153 5153 5147 5139 5137 5137 5137 5136 5134 5133 5131 5127 5123 5120 5119 5114 5110 5106 5100 5096 5091 5086
5284 5271 5253 5239 5225 5217 5217 5216 5216 5215 5209 5203 5190 5180 5173 5164 5162 5163 5163 5160 5158 5155 5153 5150 5145 5144 5142 5140 5138 5132 5127 5130 5132 5133 5132 5129 5126 5123 5122 5121 5120 5119 5116 5113 5108 5104 5100 5097 5096 5092 5090 5085 5081 5076
5264 5250 5232 5218 5213 5213 5214 5216 5211 5201 5194 5182 5173 5170 5166 5166 5153 5148 5144 5144 5145 5139 5137 5133 5130 5125 5124 5123 5122 5122 5120 5117 5116 5116 5116 5114 5112 5112 5111 5110 5108 5106 5102 5099 5097 5094 5090 5087 5083 5081 5078 5075 5072 5068
5245 5239 5228 5217 5207 5210 5207 5212 5204 5195 5192 5182 5172 5167 5156 5154 5139 5131 5132 5132 5133 5128 5122 5117 5113 5112 5112 5111 5109 5108 5107 5106 5105 5104 5103 5102 5100 5099 5098 5097 5096 5094 5091 5089 5087 5085 5083 5080 5075 5073 5070 5066 5063 5060